sat.trackr.live / text

‹ back to catalog

STARLINK-36329

NORAD 67739 · 2026-026U

PAYLOAD ACTIVE UNKNOWN

§ Identity

Operator
Country
US
Launch date
2026-02-11
Launch site
AFWTR
Launch vehicle
Mass (kg)
RCS (m²)

Purposes: comms

External: N2YO · Heavens-Above · Gunter

§ Orbital elements

Epoch: 2026-09-18T22:08:54.612384Z

Period
93.91 min
Inclination
97.2872°
Eccentricity
0.0001079
Mean motion
15.33444131 rev/d
Perigee alt
464.8 km
Apogee alt
466.3 km
Semi-major
6,843.7 km
B*
4.8888e-4
RAAN
313.8484°
Arg perigee
71.0731°
Mean anomaly
289.0629°
Rev number
3,374

§ Raw data

STARLINK-363291 67739U 26026U   26261.92285431  .00015740  00000+0  48888-3 0  99942 67739  97.2872 313.8484 0001079  71.0731 289.0629 15.33444131 33748

JSON: /api/v1/satellites/67739 · /tle

For live sub-satellite position, see the globe view (requires WebGL).

§ Visibility from observer

Set your observer location to see the next 7 days of passes ≥ 10°. The values pass through the URL so the page stays shareable.

No JS? Fill the form by hand. The geolocation button needs JavaScript.